Weather History for Cody, WY

Change the Weather History Date:

Monday, May 6, 2013

  Actual Average Record
Temperature  
Mean Temperature 54 °F -  
Max Temperature 68 °F 64 °F 88 °F (1934)
Min Temperature 39 °F 39 °F 22 °F (1929)
Degree Days  
Heating Degree Days 12    
Growing Degree Days 4 (Base 50)    
Moisture  
Dew Point 34 °F    
Average Humidity 51    
Maximum Humidity 81    
Minimum Humidity 24    
Precipitation  
Precipitation 0.00 in - - ()
Sea Level Pressure  
Sea Level Pressure 29.99 in    
Wind  
Wind Speed 5 mph (SSE)    
Max Wind Speed 10 mph    
Max Gust Speed -    
Visibility 10 miles    
Events      
Averages and records for this station are not official NWS values.
T = Trace of Precipitation, MM = Missing Value Source: NWS Daily Summary

Daily Weather History Graph

Daily Weather History Graph

Search for Another Location

Airport:

Trip Planner

Search our weather history database for the weather conditions in past years. The results will help you decide how hot, cold, wet, or windy it might be!

Date:

Astronomy

May. 06, 2013 Rise Set
Actual Time 5:59 AM MDT 8:27 PM MDT
Civil Twilight 5:26 AM MDT 8:59 PM MDT
Nautical Twilight 4:45 AM MDT 9:40 PM MDT
Astronomical Twilight 3:59 AM MDT 10:27 PM MDT
Moon 4:10 AM MDT (5/6) 5:24 PM MDT (5/6)
Length of Visible Light 15h 33m
Length of Day
14h 27m
Waning Crescent, 10% of the Moon is Illuminated
May 6
Waning Crescent
May 9
New
May 17
First Quarter
May 24
Full
May 31
Last Quarter

Hourly Weather History & Observations

Time (MDT) Temp. Windchill Dew Point Humidity Pressure Visibility Wind Dir Wind Speed Gust Speed Precip Events Conditions
12:35 AM 44.6 °F 43.1 °F 35.6 °F 71% 30.05 in 10.0 mi SSE 3.5 mph - N/A   Clear
12:55 AM 42.8 °F 38.6 °F 35.6 °F 76% 30.05 in 10.0 mi SSE 6.9 mph - N/A   Clear
1:15 AM 42.8 °F 38.6 °F 35.6 °F 76% 30.05 in 10.0 mi South 6.9 mph - N/A   Clear
1:35 AM 42.8 °F 38.6 °F 35.6 °F 76% 30.05 in 10.0 mi SSW 6.9 mph - N/A   Clear
1:55 AM 44.6 °F 40.7 °F 35.6 °F 71% 30.04 in 10.0 mi SW 6.9 mph - N/A   Clear
2:35 AM 44.6 °F - 35.6 °F 71% 30.04 in 10.0 mi Calm Calm - N/A   Clear
2:55 AM 42.8 °F 40.1 °F 35.6 °F 76% 30.04 in 10.0 mi South 4.6 mph - N/A   Clear
3:15 AM 42.8 °F 38.6 °F 33.8 °F 70% 30.03 in 10.0 mi SSW 6.9 mph - N/A   Clear
3:35 AM 42.8 °F 40.1 °F 33.8 °F 70% 30.03 in 10.0 mi South 4.6 mph - N/A   Clear
3:55 AM 42.8 °F - 35.6 °F 76% 30.03 in 10.0 mi Calm Calm - N/A   Clear
4:15 AM 42.8 °F 41.1 °F 33.8 °F 70% 30.03 in 10.0 mi South 3.5 mph - N/A   Clear
4:35 AM 41.0 °F 39.0 °F 33.8 °F 76% 30.04 in 10.0 mi SW 3.5 mph - N/A   Clear
5:15 AM 39.2 °F 35.0 °F 33.8 °F 81% 30.04 in 10.0 mi South 5.8 mph - N/A   Clear
5:35 AM 41.0 °F 39.0 °F 33.8 °F 76% 30.04 in 10.0 mi WSW 3.5 mph - N/A   Clear
5:55 AM 39.2 °F - 33.8 °F 81% 30.04 in 10.0 mi Calm Calm - N/A   Clear
6:15 AM 39.2 °F - 32.0 °F 75% 30.04 in 10.0 mi Calm Calm - N/A   Clear
6:35 AM 41.0 °F 39.0 °F 33.8 °F 76% 30.04 in 10.0 mi West 3.5 mph - N/A   Clear
6:55 AM 41.0 °F - 33.8 °F 76% 30.05 in 10.0 mi Calm Calm - N/A   Clear
7:15 AM 42.8 °F - 35.6 °F 76% 30.05 in 10.0 mi Calm Calm - N/A   Clear
8:15 AM 48.2 °F - 35.6 °F 62% 30.06 in 10.0 mi Calm Calm - N/A   Clear
8:35 AM 50.0 °F - 35.6 °F 58% 30.05 in 10.0 mi Calm Calm - N/A   Clear
8:55 AM 51.8 °F - 35.6 °F 54% 30.05 in 10.0 mi Calm Calm - N/A   Clear
9:15 AM 53.6 °F - 35.6 °F 51% 30.05 in 10.0 mi NE 4.6 mph - N/A   Clear
9:35 AM 53.6 °F - 35.6 °F 51% 30.05 in 10.0 mi NE 4.6 mph - N/A   Clear
10:35 AM 55.4 °F - 35.6 °F 47% 30.04 in 10.0 mi NNE 4.6 mph - N/A   Clear
10:55 AM 57.2 °F - 35.6 °F 44% 30.04 in 10.0 mi ESE 5.8 mph - N/A   Clear
11:15 AM 57.2 °F - 33.8 °F 41% 30.03 in 10.0 mi SSE 3.5 mph - N/A   Clear
11:55 AM 60.8 °F - 33.8 °F 36% 30.03 in 10.0 mi East 6.9 mph - N/A   Clear
12:15 PM 60.8 °F - 33.8 °F 36% 30.02 in 10.0 mi ESE 4.6 mph - N/A   Clear
12:35 PM 60.8 °F - 32.0 °F 34% 30.02 in 10.0 mi East 9.2 mph - N/A   Clear
1:15 PM 62.6 °F - 33.8 °F 34% 30.00 in 10.0 mi NE 3.5 mph - N/A   Clear
1:35 PM 64.4 °F - 33.8 °F 32% 29.99 in 10.0 mi SSE 6.9 mph - N/A   Clear
1:55 PM 64.4 °F - 33.8 °F 32% 29.98 in 10.0 mi SE 9.2 mph - N/A   Clear
2:35 PM 66.2 °F - 32.0 °F 28% 29.97 in 10.0 mi NE 9.2 mph - N/A   Clear
2:55 PM 66.2 °F - 32.0 °F 28% 29.96 in 10.0 mi NE 4.6 mph - N/A   Clear
3:15 PM 66.2 °F - 32.0 °F 28% 29.96 in 10.0 mi SSE 6.9 mph - N/A   Clear
3:35 PM 66.2 °F - 32.0 °F 28% 29.95 in 10.0 mi East 8.1 mph - N/A   Clear
4:55 PM 66.2 °F - 30.2 °F 26% 29.92 in 10.0 mi ESE 6.9 mph - N/A   Clear
5:15 PM 66.2 °F - 30.2 °F 26% 29.92 in 10.0 mi NE 3.5 mph - N/A   Clear
5:35 PM 68.0 °F - 32.0 °F 26% 29.92 in 10.0 mi NNW 3.5 mph - N/A   Clear
5:55 PM 68.0 °F - 30.2 °F 24% 29.92 in 10.0 mi SE 10.4 mph - N/A   Clear
6:15 PM 66.2 °F - 30.2 °F 26% 29.92 in 10.0 mi Calm Calm - N/A   Clear
6:55 PM 66.2 °F - 30.2 °F 26% 29.91 in 10.0 mi SE 8.1 mph - N/A   Clear
7:16 PM 64.4 °F - 30.2 °F 28% 29.91 in 10.0 mi SE 6.9 mph - N/A   Clear
7:35 PM 64.4 °F - 30.2 °F 28% 29.92 in 10.0 mi SE 8.1 mph - N/A   Clear
7:55 PM 62.6 °F - 32.0 °F 32% 29.92 in 10.0 mi SSE 6.9 mph - N/A   Clear
8:15 PM 60.8 °F - 32.0 °F 34% 29.92 in 10.0 mi SE 8.1 mph - N/A   Clear
8:35 PM 57.2 °F - 32.0 °F 38% 29.92 in 10.0 mi SSE 6.9 mph - N/A   Clear
8:55 PM 55.4 °F - 33.8 °F 44% 29.92 in 10.0 mi South 9.2 mph - N/A   Clear
9:15 PM 53.6 °F - 35.6 °F 51% 29.93 in 10.0 mi South 6.9 mph - N/A   Clear
9:35 PM 53.6 °F - 35.6 °F 51% 29.93 in 10.0 mi SSE 5.8 mph - N/A   Clear
9:55 PM 53.6 °F - 35.6 °F 51% 29.94 in 10.0 mi Calm Calm - N/A   Clear
10:15 PM 53.6 °F - 35.6 °F 51% 29.94 in 10.0 mi Calm Calm - N/A   Clear
10:35 PM 53.6 °F - 35.6 °F 51% 29.94 in 10.0 mi Calm Calm - N/A   Clear
10:55 PM 51.8 °F - 35.6 °F 54% 29.94 in 10.0 mi SSW 4.6 mph - N/A   Clear
11:15 PM 51.8 °F - 35.6 °F 54% 29.94 in 10.0 mi SW 5.8 mph - N/A   Clear
11:35 PM 51.8 °F - 35.6 °F 54% 29.94 in 10.0 mi SSW 9.2 mph - N/A   Clear
11:55 PM 51.8 °F - 33.8 °F 50% 29.94 in 10.0 mi SW 8.1 mph - N/A   Clear